Flag for Germany Weather past 2 weeks in Wismar, Mecklenburg-Western Pomerania, Germany

Now
47 °F

Low clouds.


Feels Like: 44 °F
Forecast: 40 / 45 °F
Wind: 6 mph from Southwest

Location: Schwerin

Current Time: Mar 29, 2015 at 6:11:12 AM

Latest Report: Mar 29, 2015 at 5:00 AM


Visibility: 2 mi

Pressure: 29.53 "Hg

Humidity: 97%

Dew point: 46 °F

Location of WismarLocation

Historic Weather in Wismar — Graph

°F

Wismar temperature yesterday

Maximum temperature yesterday: 48 °F (at 5:00 PM)
Minimum temperature yesterday: 39 °F (at 6:00 AM)
Average temperature yesterday: 44 °F

Past Weeks' High & Low Weather Summary

 TemperatureHumidityPressure
High59 °F (Mar 17, 3:00 PM)98% (Mar 21, 12:00 PM)30.51 "Hg (Mar 21, 12:00 PM)
Low29 °F (Mar 23, 6:00 AM)22% (Mar 19, 3:00 PM)29.58 "Hg (Mar 29, 4:00 AM)
Average43 °F72%30.14 "Hg
* Reported Mar 14 3:00 AM — Mar 29 4:00 AM, Wismar, Weather by CustomWeather, © 2015

Note: Actual official high and low records may vary slightly from our data, if they occured in-between our weather recording intervals... More about our weather records

Advertising

Wismar weather history for previous 24 hours

 ConditionsComfort  
Time TempWeatherWind HumidityBarometerVisibility
4:00 AM
Sun, Mar 29
46 °FLow clouds.6 mph98%29.58 "Hg2 mi
3:00 AM45 °FLow clouds.6 mph96%29.62 "Hg2 mi
1:00 AM45 °FDrizzle. Low clouds.6 mph95%29.66 "Hg2 mi
12:00 AM45 °FLight rain. Overcast.3 mph90%29.70 "Hg4 mi
11:00 PM
Sat, Mar 28
45 °FOvercast.5 mph81%29.73 "Hg6 mi
9:00 PM46 °FOvercast.3 mph67%29.81 "Hg7 mi
8:00 PM46 °FOvercast.3 mph65%29.84 "Hg9 mi
7:00 PM47 °FLight rain. Overcast.3 mph58%29.87 "Hg7 mi
6:00 PM48 °FOvercast.3 mph55%29.89 "Hg13 mi
5:00 PM48 °FOvercast.5 mph55%29.92 "Hg17 mi
3:00 PM48 °FPartly sunny.6 mph51%29.99 "Hg28 mi
2:00 PM47 °FOvercast.7 mph52%30.02 "Hg25 mi
1:00 PM46 °FOvercast.6 mph61%30.05 "Hg11 mi
12:00 PM45 °FOvercast.5 mph62%30.08 "Hg16 mi
11:00 AM43 °FOvercast.3 mph82%30.11 "Hg5 mi
9:00 AM40 °FFog.3 mph94%30.13 "Hg3 mi
8:00 AM39 °FLow clouds.2 mph93%30.14 "Hg6 mi
7:00 AM39 °FOvercast.2 mph92%30.14 "Hg7 mi
6:00 AM39 °FOvercast.3 mph91%30.14 "Hg7 mi
Weather by CustomWeather, © 2015

See weather overviewHow to use our weather pages